NOAA 16 DEB, 41157

Orbit data source: Space-Track

NOAA 16 DEB, 41157 is space debris in SSO originally from a launch on Thu, 21 Sep 2000 UTC launched from the Air Force Western Test Range (AFWTR). Debris objects in space refer to the collection of defunct objects orbiting the Earth. Examples of debris include non-operational satellites, rocket bodies, and fragments generated from explosions, collisions, or faulty payload assembly.

Loading next visibility...
Identifier
41157, 2000-055CQ
Orbit
SSO
Country
Flag of USUS
Related business
Manufacturer
Unknown
Mission
Spacecraft
Bus & Motor
Unknown
Mass
Unknown
Launch date (UTC)
Icon of a cake. It is the launch day of the satellite!2000-09-21 (26 years ago)
Launch vehicle
Unknown
Launch site
Air Force Western Test Range (AFWTR)
Object type
Payload
Rocket body
Debris
Shape & HBR
Unknown shape, 0.1 m
Radar Cross Section
Medium (>0.1 m² and <1 m²)

Expand to show TLE details & history
Last TLE update: 11 hours ago

TLE from 11 hours ago
0 NOAA 16 DEB
1 41157U 00055CQ  26264.20968672  .00009579  00000-0  22390-2 0  9996
2 41157  98.9114  44.3545 0020548 185.8486 174.2472 14.54753223558535
Epoch: 2026-09-21T05:01Z
TLE epoch observation values (Epoch: 2026-09-21T05:01:56.932Z)
Latitude
-0.00004°
Longitude
-31.2255°
Altitude
727.616 km
Speed
7.484 km/s
True Right ascension
02h 57m 25s
True Declination
0° 00' 00"
Sunlit
Object was in full shadow at epoch
Visualization orbit readout
Latitude
Unknown
Longitude
Unknown
Altitude
Unknown
Speed
Unknown
Apparent Right ascension
Unknown
Apparent Declination
Unknown
Sunlit
N/A
Visualization observer readout
Local Sidereal Time
09:00:11
Azimuth
Unknown
Elevation
Unknown
Doppler factor
Unknown
Orbital elements
Apogee altitude
721.848 km
Perigee altitude
692.729 km
Semi-major axis
7,085.425 km
Eccentricity
0.00205
Inclination
98.9114°
RAAN
44.3545°
Arg. of periapsis
185.8486°
True anomaly
174.27074°
Mean anomaly
174.2472°
Eccentric anomaly
174.25898°
Mean motion
3.6391 °/min
Orbital period
98.93 mins
BSTAR
0.002239
Loading maneuver chart data...
Computing Atmospheric mass density...

Documentation

Showing up to 5 results
|